• Processing (Info)

  • MPEC 2020-V07 : 2020 UW6

    The following Minor Planet Electronic Circular may be linked-to from your own Web pages, but must not otherwise be redistributed electronically.

    A form allowing access to any MPEC is at the bottom of this page.


    Read MPEC 2020-V06 Read MPEC 2020-V08


    M.P.E.C. 2020-V07                              Issued 2020 November 3, 06:00 UT
    
         The Minor Planet Electronic Circulars contain information on unusual
             minor planets and routine data on comets.  They are published
        on behalf of Division F of the International Astronomical Union by the
              Minor Planet Center, Smithsonian Astrophysical Observatory,
                              Cambridge, MA 02138, U.S.A.
    
                 Prepared using the Tamkin Foundation Computer Network
    
                                  MPC@CFA.HARVARD.EDU
                URL https://www.minorplanetcenter.net/    ISSN 1523-6714
    
                                    2020 UW6                                 
    
    
    Observations:
         K20U06W* C2020 10 29.43504207 17 22.36 +09 10 08.5          19.18GVEV007G96
         K20U06W  C2020 10 29.44029807 17 16.30 +09 10 10.4          19.72GVEV007G96
         K20U06W  C2020 10 29.44550507 17 10.14 +09 10 13.5          20.02GVEV007G96
         K20U06W KC2020 10 29.48231307 16 26.63 +09 10 34.7          19.89GVEV007I52
         K20U06W KC2020 10 29.48382407 16 24.83 +09 10 35.9                VEV007I52
         K20U06W KC2020 10 29.48533407 16 23.06 +09 10 36.3          19.97GVEV007I52
         K20U06W KC2020 10 29.50997407 15 53.94 +09 10 50.1          19.65GVEV007I52
         K20U06W KC2020 10 29.51148307 15 52.15 +09 10 50.9          19.93GVEV007I52
         K20U06W KC2020 10 29.51299207 15 50.37 +09 10 51.8          19.62GVEV007I52
         K20U06W KC2020 10 29.51450207 15 48.59 +09 10 52.6          19.92GVEV007I52
         K20U06W  C2020 10 30.40940006 58 41.28 +09 17 35.4          20.04GVEV007G96
         K20U06W  C2020 10 30.40963206 58 41.03 +09 17 35.2          20.19GVEV007G96
         K20U06W  C2020 10 30.40986506 58 40.74 +09 17 34.7          20.38GVEV007G96
         K20U06W  C2020 10 30.41009706 58 40.48 +09 17 34.9          20.65GVEV007G96
         K20U06W KC2020 10 30.49359506 57 04.14 +09 18 04.3          19.96GVEV007I52
         K20U06W KC2020 10 30.49510006 57 02.38 +09 18 05.1          19.62GVEV007I52
         K20U06W KC2020 10 30.49660606 57 00.64 +09 18 05.0          20.02GVEV007I52
         K20U06W KC2020 10 30.51746706 56 36.63 +09 18 12.1          19.51GVEV007I52
         K20U06W KC2020 10 30.51898006 56 34.90 +09 18 12.6          19.87GVEV007I52
         K20U06W KC2020 10 30.52049306 56 33.15 +09 18 13.0          19.38GVEV007I52
         K20U06W KC2020 10 30.79344 06 51 28.13 +09 19 21.9          19.1 GVEV007N88
         K20U06W KC2020 10 30.79377 06 51 27.76 +09 19 22.2          19.0 GVEV007N88
         K20U06W pC2020 10 30.96466906 48 16.78 +09 20 01.4          20.0 GVEV007L01
         K20U06W pC2020 10 30.96739506 48 13.72 +09 20 02.7          20.1 GVEV007L01
         K20U06W pC2020 10 31.00427906 47 32.23 +09 20 12.1          19.8 GVEV007L01
         K20U06W pC2020 10 31.01345106 47 21.94 +09 20 14.3          19.8 GVEV007L01
         K20U06W KC2020 10 31.04120506 46 50.89 +09 20 20.1          18.9 GVEV007203
         K20U06W KC2020 10 31.07014906 46 18.35 +09 20 26.4          19.2 GVEV007203
         K20U06W KC2020 10 31.08925 06 45 56.86 +09 20 30.6          20.0 GVEV007204
         K20U06W HC2020 10 31.09862 06 45 46.29 +09 20 32.2                VEV007204
         K20U06W HC2020 10 31.10750 06 45 36.33 +09 20 34.4                VEV007204
    
    Observer details:
    203 GiaGa Observatory.  Observers S. Foglia, G. Galli.  Measurer G. Galli.
        0.36-m f/5.76 Schmidt-Cassegrain + CCD.
    204 Schiaparelli Observatory.  Observer L. Buzzi.  0.84-m f/3.5 reflector +
        CCD.
    G96 Mt. Lemmon Survey.  Observer G. J. Leonard.  Measurers E. J. Christensen,
        G. A. Farneth, D. C. Fuls, A. R. Gibbs, A. D. Grauer, H. Groeller, R. A.
        Kowalski, S. M. Larson, G. J. Leonard, T. A. Pruyne, D. Rankin, R. L.
        Seaman, F. C. Shelly, K. W. Wierzchos.  1.5-m reflector + 10K CCD.
    I52 Steward Observatory, Mt. Lemmon Station.  Observer K. W. Wierzchos.
        Measurers E. J. Christensen, G. A. Farneth, D. C. Fuls, A. R. Gibbs, A. D.
        Grauer, H. Groeller, R. A. Kowalski, S. M. Larson, G. J. Leonard, T. A.
        Pruyne, D. Rankin, R. L. Seaman, F. C. Shelly, K. W. Wierzchos.  1.0-m
        reflector + CCD.
    L01 Visnjan Observatory, Tican.  Observer K. Korlevic.  1.0-m f/2.9 reflector
        + CCD.
    N88 Xingming Observatory #3, Nanshan.  Observer X. Gao.  Measurer Q.-Z. Ye.
        0.6-m f/8 Ritchey-Chretien + CCD.
    
    Orbital elements:
    2020 UW6                                            PHA, Earth MOID = 0.0291 AU
    Epoch 2020 Dec. 17.0 TT = JDT 2459200.5                 Bell                    
    M  43.18123              (2000.0)            P               Q                  
    n   0.44776997     Peri.   79.31628     +0.23584329     +0.97091210             
    a   1.6921262      Node   204.44492     -0.92607695     +0.21165691             
    e   0.7947106      Incl.    5.73107     -0.29454954     +0.11194218             
    P   2.20           H   21.71          G   0.15           U   9                  
    Residuals in seconds of arc
    201029 G96 (2.2-  1.2+)   201030 G96  0.2+  0.2+    201030 L01  0.2-  0.3-
    201029 G96  0.0+  0.0-    201030 G96  0.1-  0.3-    201030 L01  0.2-  0.3+
    201029 G96  0.1-  0.0-    201030 G96  0.0+  0.2-    201031 L01  0.7-  0.3+
    201029 I52  0.0-  0.0-    201030 I52  0.0-  0.0-    201031 L01  0.3-  0.3+
    201029 I52  0.2-  0.3+    201030 I52  0.4-  0.3+    201031 203  0.0-  0.1-
    201029 I52  0.0-  0.2-    201030 I52  0.5-  0.3-    201031 203  0.3+  0.4-
    201029 I52  0.1+  0.1-    201030 I52  0.0-  0.1+    201031 204  0.3+  0.1-
    201029 I52  0.0-  0.2-    201030 I52  0.2+  0.1+    201031 204  0.2-  0.5-
    201029 I52  0.0+  0.1-    201030 I52  0.1+  0.1+    201031 204  0.3+  0.1-
    201029 I52  0.1+  0.1-    201030 N88  0.1-  0.0-
    201030 G96  0.0-  0.5+    201030 N88  0.0-  0.2+
    
    Ephemeris:
    2020 UW6                 a,e,i = 1.69, 0.79, 6                   q = 0.3474
    Date    TT    R. A. (2000) Decl.     Delta      r    Elong.  Phase     V
    2020 10 04    12 15 59.1 +00 00 23   0.3698  0.6355     7.5   168.2    33.9
    ...
    2020 10 19    10 17 50.3 +05 09 24   0.1962  0.8874    51.5   118.5    22.6
    ...
    2020 10 27    08 05 00.3 +08 35 54   0.1586  1.0122    92.1    78.9    20.5
    ...
    2020 11 02    06 12 04.8 +09 21 33   0.1725  1.1012   125.4    47.3    19.9
    2020 11 03    05 55 42.6 +09 17 50   0.1784  1.1157   130.3    42.7    19.9
    2020 11 04    05 40 22.3 +09 12 05   0.1850  1.1300   134.9    38.4    19.8
    ...
    2020 11 10    04 29 28.8 +08 20 22   0.2394  1.2140   156.8    18.8    20.0
    ...
    2020 11 18    03 36 19.3 +07 25 26   0.3373  1.3204   168.2     8.8    20.6
    ...
    2020 12 03    02 54 59.1 +07 06 46   0.5647  1.5050   151.1    18.5    22.3
    
    M. P. C. Staff               (C) Copyright 2020 MPC           M.P.E.C. 2020-V07
    


    Read MPEC 2020-V06 Read MPEC 2020-V08


    MPEC number:

    Enter an MPEC number in one of the following forms:

    • 1997-B01 (the full form)
    • J97B01 (the packed version of the full form)
    • B01 (the abbreviated form)